Theta_e
306 308 307 308 308 308 307 306 306 306 306 306 307 306 304 304 304 303 302 302 302 302
308 309 308 308 309 308 308 307 307 306 306 305 305 305 305 302 304 303 302 302 302 300
309 309 309 309 308 307 307 307 306 306 306 306 306 306 306 305 304 303 302 302 301 299
308 309 308 308 308 307 307 307 307 306 306 305 306 306 306 305 304 303 302 301 300 299
308 308 308 307 308 307 306 307 307 306 305 305 306 306 306 305 305 304 302 301 300 299
307 308 308 308 307 307 307 306 306 306 305 305 305 305 306 305 305 305 304 302 300 299
305 307 308 308 307 307 306 306 306 306 306 305 305 305 305 305 305 305 304 303 302 299
304 305 306 307 307 306 306 306 306 305 305 305 305 304 304 305 304 304 303 301 299 299
303 303 304 305 305 305 305 305 305 304 304 303 303 294 299 302 304 303 302 301 299 298
302 302 302 303 303 304 304 304 304 303 303 303 303 297 298 297 304 303 303 302 298 295
300 301 300 301 301 302 303 303 303 303 303 303 303 297 297 295 303 303 302 302 299 299
298 298 296 299 299 301 301 301 302 302 302 302 302 296 297 297 300 296 296 298 300 300
294 296 297 297 297 295 299 298 295 293 301 297 302 296 296 297 299 295 294 292 294 290
293 294 296 296 292 292 296 292 292 292 292 295 298 297 296 296 296 297 294 294 292 293
Wind_Speed
7 7 6 6 6 4 4 6 8 6 5 6 8 7 5 4 4 5 4 6 5 4
7 9 8 8 8 5 5 5 8 7 7 5 6 7 6 4 5 5 4 5 5 4
8 9 9 10 9 8 7 8 8 7 7 7 6 6 6 6 5 6 3 3 5 4
8 9 10 10 9 9 8 9 9 9 8 9 8 7 7 6 7 7 5 4 5 6
9 9 9 9 10 10 10 9 9 9 9 9 9 8 9 8 8 9 8 6 6 6
9 10 10 10 11 11 10 10 9 9 10 9 9 9 9 9 9 9 9 8 7 6
10 9 9 9 10 10 11 11 10 10 9 10 9 9 8 8 8 8 8 8 9 7
9 8 8 9 10 10 10 10 11 11 9 9 9 8 9 8 8 8 7 6 7 7
9 9 9 9 9 10 11 10 10 11 11 10 7 11 13 10 8 8 8 8 7 6
10 10 9 9 9 10 11 10 11 11 11 11 10 15 15 14 8 9 9 8 7 6
10 10 10 9 10 9 9 11 10 10 11 10 9 17 17 16 10 9 9 9 9 9
11 9 8 10 10 8 8 8 9 8 10 11 9 16 18 15 9 7 8 8 8 10
9 10 11 9 9 5 6 7 5 6 9 9 10 15 18 16 7 8 7 6 7 12
10 12 13 11 7 7 8 6 6 7 6 7 10 9 18 19 9 9 8 8 7 7
Wind_Direction
156 153 150 152 141 145 150 143 150 156 159 148 141 132 127 114 113 118 111 118 104 107
163 155 156 149 145 139 137 142 151 160 148 153 134 137 139 129 123 119 117 118 117 111
165 160 153 149 155 146 143 150 152 162 151 152 148 144 148 136 126 126 123 131 146 137
154 158 155 154 157 153 147 158 162 158 166 162 163 156 157 157 151 151 153 159 168 175
156 159 162 158 160 160 158 162 165 161 167 171 171 167 174 169 173 171 175 179 175 190
169 167 172 169 163 169 162 166 165 170 172 177 177 179 185 180 182 186 189 185 187 190
175 168 172 171 168 171 171 170 170 178 180 178 178 185 189 182 185 198 197 191 194 182
174 166 162 172 175 171 174 177 177 173 178 176 180 179 181 186 189 193 202 197 191 193
174 167 176 176 177 176 177 177 176 182 177 181 184 179 178 184 191 188 194 202 204 196
177 176 180 177 176 181 180 177 184 187 182 186 187 179 184 186 194 192 199 204 198 196
187 184 177 175 181 182 182 184 187 189 190 188 193 182 188 192 197 201 205 205 199 203
187 184 175 186 186 186 181 185 191 191 191 196 196 188 190 185 202 200 205 206 200 205
173 182 189 187 185 170 180 194 178 186 198 199 205 192 194 189 192 203 209 203 214 208
186 187 190 184 170 171 183 172 185 193 202 197 204 196 198 196 193 205 205 212 217 220